User: anonymous   Login
Location: Columbia
(38.9520°N, 92.3340°W)
Time: 23:08:46
(UTC-06:00)
Language:

Cosmos 158 Rocket - Orbit

View from above orbital plane
View from above orbital plane
View from above satellite
View from above satellite

Ground track
Ground track

The orbit data is extracted from the following two-line orbital elements,

1 02802U 67045B   14326.82843101  .00000386  00000-0  11944-3 0  6184
2 02802 074.0123 111.2936 0066644 030.0947 330.4012 14.43293087493722
Epoch (UTC): 22 November 2014 19:52:56
Eccentricity: 0.0066644
inclination: 74.0123°
perigee height: 700 km
apogee height: 795 km
right ascension of ascending node: 111.2936°
argument of perigee: 30.0947°
revolutions per day: 14.43293087
mean anomaly at epoch: 330.4012°
orbit number at epoch: 49372

The dashed part of the orbit path shows where the satellite is in the earth's shadow,  

DLR